Regional Weather Roundup
Issued by NWS

Home | Current Version | Previous Version | Text Only | Print | Product List | Glossary On
Versions: 1 2 3 4 5 6 7 8 9 10 11 12 13 14 15 16 17 18 19 20 21 22 23 24 25 26 27
000
ASUS45 KTFX 251710
RWRMT
MONTANA REGIONAL WEATHER ROUNDUP
NATIONAL WEATHER SERVICE GREAT FALLS MT
1000 AM MST SUN FEB 25 2018

NOTE: "FAIR" INDICATES FEW OR NO CLOUDS BELOW 12000 FEET WITH NO
SIGNIFICANT WEATHER AND/OR OBSTRUCTIONS TO VISIBILITY.

MTZ001>007-043-251800-
WEST OF THE DIVIDE

CITY           SKY/WX    TMP DP  RH WIND       PRES   REMARKS
KALISPELL      CLOUDY    28  23  81 S18       29.69F WCI  15
MISSOULA       CLOUDY    30  17  58 NE6       29.81F WCI  24
BUTTE          CLOUDY    23   6  48 S6        29.76F WCI  16
MULLAN PASS    HVY SNOW  21  16  81 VRB7G20   29.62F VSB 1/4 WCI  12
ANACONDA         N/A     25   9  50 MISG      29.78R
DEER LODGE       N/A     27  12  54 S9        29.77S WCI  17
HAMILTON         N/A     30  16  55 MISG      29.84S
PLAINS           N/A     33  18  54 SE8       29.77F WCI  26
RONAN            N/A     30  19  64 S18G24    29.76F WCI  18
$$

MTZ008-052>055-251800-
SOUTHWEST MONTANA

CITY           SKY/WX    TMP DP  RH WIND       PRES   REMARKS
BOZEMAN        CLOUDY    27   8  44 SW8       29.80F WCI  19
DILLON         PTSUNNY   18   6  59 S18       29.83F WCI   2
ENNIS          PTSUNNY   21   9  58 S15G22    29.87F WCI   8
W YELLOWSTONE  SNOW      10   7  85 SW16G24   29.87R VSB 1/2 WCI  -7
THREE FORKS      N/A     27  10  48 S20       29.81S WCI  14
TWIN BRIDGES     N/A     26   6  42 SE12      29.84S WCI  16
$$

MTZ009-010-012-014-046-048-049-054-251800-
EAST SLOPES AND CENTRAL MONTANA

CITY           SKY/WX    TMP DP  RH WIND       PRES   REMARKS
CUT BANK       FAIR      24  18  77 W38G45    29.48F WCI   5
GREAT FALLS    FAIR      26  16  65 SW31      29.59S WCI   9
MALMSTROM AFB  FAIR      26  19  76 SW37      29.61S FOG     WCI   8
HELENA         CLOUDY    29  11  47 SE9       29.76F WCI  20
AUGUSTA        PTSUNNY   26  14  60 S14       29.60F WCI  14
BOWMANS CRNR   FAIR      22  16  76 S29       29.61F WCI   4
CHOTEAU          N/A     28  14  54 SW30G40   29.56R WCI  13
CONRAD           N/A     27  16  63 SW14      29.60  WCI  16
FAIRFIELD      SNOWSHWR  26  17  69 SW41G51   29.58R FOG     WCI   6
POWER          FAIR      24  17  75 SW28      29.57F WCI   8
RAYNESFORD     PTSUNNY   29  12  47 SW35G44   29.60R WCI  13
ULM            FRZ DRZL  26  18  72 SW36G47   29.61F FOG     WCI   8
WHITE SULPHUR    N/A     23   9  54 SW28G39   29.67S WCI   6
$$

MTZ011-013-016-021-045-047-050-051-251800-
NORTH CENTRAL MONTANA

CITY           SKY/WX    TMP DP  RH WIND       PRES   REMARKS
HAVRE          FAIR      23  17  78 SW29      29.55S WCI   6
LEWISTOWN      FAIR      24  15  68 SW24      29.58F WCI   8
N BAR RANCH    PTSUNNY   25   7  46 VRB6      29.61S WCI  18
CHINOOK          N/A     28  16  59 MISG      29.55S
GEYSER         FAIR      28  15  57 W17G26    29.57F WCI  16
STANFORD       FAIR      27  15  60 W28       29.56F WCI  11
WINIFRED       FAIR      24  13  64 SW14      29.56F WCI  11
$$

MTZ017>020-022>027-061-062-251800-
NORTHEAST MONTANA

CITY           SKY/WX    TMP DP  RH WIND       PRES   REMARKS
GLASGOW        PTSUNNY   10   4  76 E6        29.61F WCI   0
GLENDIVE       FAIR      13   6  74 S8        29.67S WCI   2
JORDAN           N/A     20  10  65 W9        29.64S WCI   9
MALTA          CLOUDY    12   7  79 W8        29.58F WCI   1
SIDNEY         FAIR      16   7  67 SW10        N/A  WCI   4
WOLF POINT     FAIR      11   5  77 SW5       29.65S
PLENTYWOOD       N/A     12   7  79 SE7       29.60R WCI   2
POPLAR           N/A     10   1  67 W6        29.66R WCI   1
$$

MTZ028>42-056>058-251800-
SOUTHCENTRAL AND SOUTHEAST MONTANA

CITY           SKY/WX    TMP DP  RH WIND       PRES   REMARKS
BAKER          FAIR      20  13  74 SW14      29.69R WCI   7
BILLINGS       PTSUNNY   23   8  52 SW18      29.71S WCI   9
LIVINGSTON     FAIR      27  12  53 SW41G59   29.71R WCI   8
MILES CITY     FAIR      16  10  77 SW8       29.70S WCI   5
BIG TIMBER     HAZE      25  14  63 W39G55    29.67F VSB 3/4 WCI   6
FORSYTH          N/A     25  10  54 W6        29.71R WCI  18
HARLOWTON      FAIR      25  15  65 W44G52    29.62F WCI   6
LAUREL           N/A     21  10  63 SW14      29.73S WCI   8
$$

REGIONAL REPORTS...DAKOTAS

CITY           SKY/WX    TMP DP  RH WIND       PRES   REMARKS
WILLISTON      FAIR      16   8  71 SW10      29.65S WCI   4
MINOT          CLOUDY    25  16  68 W18       29.61R WCI  11
DICKINSON      FAIR      21  10  62 W15       29.63S WCI   8
BEACH          FAIR      19  10  68 SW20      29.68S WCI   4
CROSBY         FAIR      14   9  79 SW15G22   29.60F WCI  -1
TIOGA          FAIR      16  12  86 SW10      29.62S WCI   3
BISMARCK       FAIR      26  16  65 W15       29.70R WCI  14
GRAND FORKS    CLOUDY    25  19  78 W12       29.57R WCI  14
FARGO          CLOUDY    26  21  81 W20       29.63R WCI  12
BUFFALO SD       N/A     20  12  71 SW18      29.64S WCI   5
RAPID CITY     FAIR      30  16  56 NW8       29.78R WCI  22
$$

REGIONAL REPORTS...WYOMING/IDAHO/WASHINGTON

CITY           SKY/WX    TMP DP  RH WIND       PRES   REMARKS
GILLETTE       FAIR      22   6  50 SW18      29.74R WCI   7
SHERIDAN       FAIR      30   9  41 NW9       29.72F WCI  22
BUFFALO WY     FAIR      25   3  38 SE7       29.71R WCI  17
CODY           FAIR      27   5  39 W24G45    29.74R WCI  12
YELLOWSTONE LA   N/A      9   3  77 VRB3      29.85R
IDAHO FALLS    PTSUNNY   20  13  74 SW25G37   30.06S WCI   2
SALMON         CLOUDY    33  10  38 S15       29.93S WCI  23
BOISE          LGT SNOW  27  23  85 SE7       30.15R FOG     WCI  19
SPOKANE        CLOUDY    33  28  81 SW25G36   29.71F WCI  20
$$

REGIONAL REPORTS...ALBERTA

CITY           SKY/WX    TMP DP  RH WIND       PRES   REMARKS
CALGARY        PTSUNNY   30   7  37 W17G25    29.29R WCI  18
CARDSTON         N/A     28  12  50 SW18G30     N/A  WCI  16
EDMONTON       CLOUDY    27  12  54 SW8       29.25S WCI  18
FORT MCMURRAY  FLURRIES  16  10  79 E6        29.29S WCI   7
HIGH LEVEL     PTSUNNY    9   7  92 NE2       29.36R
LETHBRIDGE     PTSUNNY   27  18  69 SW25      29.43F WCI  11
LLOYDMINSTER   PTSUNNY   12   5  73 SW14      29.30S WCI  -3
MEDICINE HAT   CLOUDY    23  14  68 SW17      29.44F WCI   9
MILK RIVER       N/A     27  21  80 W35G41      N/A  WCI   9
PEACE RIVER    LGT SNOW  16  14  93 N7        29.25R WCI   6
PINCHER CREEK  FLURRIES  25  19  80 W28G35    29.43R WCI   8
$$

REGIONAL REPORTS...SASKATCHEWAN

CITY           SKY/WX    TMP DP  RH WIND       PRES   REMARKS
CORONACH         N/A     14   3  62 W5          N/A
CYPRESS HILLS    N/A     18   7  62 SW12        N/A  WCI   5
ESTEVAN        MOSUNNY   18  10  73 SW14      29.59R WCI   4
MOOSE JAW        N/A     19   7  58 SW8         N/A  WCI   9
PRINCE ALBERT  PTSUNNY   14   7  73 SE5       29.49F
REGINA         MOSUNNY   10   7  85 S6        29.54R WCI   1
ROCKGLEN         N/A     16   7  67 SW17        N/A  WCI   0
SASKATOON      MOSUNNY   14  12  92 S10       29.46F WCI   1
$$




USA.gov is the U.S. government's official web portal to all federal, state and local government web resources and services.